Alicante, Spain

1:09 PM CEST on June 27, 2017 (GMT +0200)
Alicante

Weather History for LEAL - April, 2013

Change the Weather History Date:

Friday, April 12, 2013

  Actual Average Record
Temperature  
Mean Temperature 67 °F -  
Max Temperature 77 °F 69 °F 79 °F (2014)
Min Temperature 57 °F 52 °F 44 °F (1998)
Cooling Degree Days 2    
Growing Degree Days 17 (Base 50)    
Moisture  
Dew Point 48 °F    
Average Humidity 49    
Maximum Humidity 72    
Minimum Humidity 15    
Precipitation  
Precipitation 0.00 in - - ()
Sea Level Pressure  
Sea Level Pressure 30.01 in    
Wind  
Wind Speed 8 mph ()    
Max Wind Speed 20 mph    
Max Gust Speed 15 mph    
Visibility 6.9 miles    
Events      
Averages and records for this station are not official NWS values.
T = Trace of Precipitation, MM = Missing Value Source: Averaged Metar Reports

Daily Weather History Graph

Daily Weather History Graph

Search for Another Location

Airport or City:

Trip Planner

Search our weather history database for the weather conditions in past years. The results will help you decide how hot, cold, wet, or windy it might be!

Date:

Astronomy

Apr. 12, 2013 Rise Set
Actual Time 7:30 AM CEST 8:35 PM CEST
Civil Twilight 7:03 AM CEST 9:02 PM CEST
Nautical Twilight 6:31 AM CEST 9:35 PM CEST
Astronomical Twilight 5:57 AM CEST 10:09 PM CEST
Moon 8:32 AM CEST (4/12) 10:50 PM CEST (4/12)
Length of Visible Light 13h 59m
Length of Day
13h 04m
Waxing Crescent, 4% of the Moon is Illuminated
Apr 12
Waxing Crescent
Apr 18
First Quarter
Apr 25
Full
May 2
Last Quarter
May 10
New

Hourly Weather History & Observations

Time (CEST) Temp. Dew Point Humidity Pressure Visibility Wind Dir Wind Speed Gust Speed Precip Events Conditions
12:00 AM 71.6 °F 46.4 °F 41% 29.95 in 6.2 mi West 15.0 mph - N/A   Partly Cloudy
12:30 AM 71.6 °F 46.4 °F 41% 29.95 in 6.2 mi West 15.0 mph - N/A   Partly Cloudy
1:00 AM 71.6 °F 46.4 °F 41% 29.95 in 6.2 mi West 15.0 mph - N/A   Partly Cloudy
1:30 AM 69.8 °F 46.4 °F 43% 29.95 in 6.2 mi West 13.8 mph - N/A   Partly Cloudy
2:00 AM 68 °F 43 °F 29% 29.97 in 9 mi West 12.7 mph - -   Scattered Clouds
2:00 AM 69.8 °F 46.4 °F 43% 29.95 in 6.2 mi West 11.5 mph - N/A   Partly Cloudy
2:30 AM 68.0 °F 46.4 °F 46% 29.98 in 6.2 mi Variable 1.2 mph - N/A   Partly Cloudy
3:00 AM 66.2 °F 46.4 °F 49% 29.98 in 6.2 mi Calm Calm - N/A   Partly Cloudy
3:30 AM 62.6 °F 48.2 °F 59% 29.98 in 6.2 mi Calm Calm - N/A   Partly Cloudy
4:00 AM 62.6 °F 48.2 °F 59% 29.98 in 6.2 mi Variable 2.3 mph - N/A   Partly Cloudy
4:30 AM 64.4 °F 48.2 °F 56% 29.98 in 6.2 mi NW 10.4 mph - N/A   Partly Cloudy
5:00 AM 62.6 °F 48.2 °F 59% 29.98 in - NW 6.9 mph - N/A   Clear
5:30 AM 59.0 °F 48.2 °F 67% 29.98 in - WNW 6.9 mph - N/A   Clear
6:00 AM 59.0 °F 50.0 °F 72% 29.98 in - NW 3.5 mph - N/A   Clear
6:30 AM 60.8 °F 50.0 °F 68% 29.98 in - NW 6.9 mph - N/A   Clear
7:00 AM 60.8 °F 50.0 °F 68% 30.01 in - NNW 8.1 mph - N/A   Clear
7:30 AM 60.8 °F 50.0 °F 68% 30.01 in - NW 8.1 mph - N/A   Clear
8:00 AM 61 °F 47 °F 49% 30.02 in 12 mi NW 8.1 mph - -   Clear
8:00 AM 62.6 °F 50.0 °F 63% 30.01 in - NW 6.9 mph - N/A   Clear
8:30 AM 64.4 °F 50.0 °F 59% 30.04 in - NW 4.6 mph - N/A   Clear
9:00 AM 66.2 °F 50.0 °F 56% 30.04 in - NW 6.9 mph - N/A   Clear
9:30 AM 68.0 °F 50.0 °F 52% 30.04 in - NW 5.8 mph - N/A   Clear
10:00 AM 68.0 °F 48.2 °F 49% 30.04 in - WNW 11.5 mph - N/A   Clear
10:30 AM 69.8 °F 46.4 °F 43% 30.06 in - WNW 11.5 mph - N/A   Clear
11:00 AM 69.8 °F 44.6 °F 40% 30.06 in - NW 12.7 mph - N/A   Clear
11:30 AM 71.6 °F 44.6 °F 38% 30.06 in - WNW 16.1 mph - N/A   Clear
12:00 PM 73.4 °F 42.8 °F 33% 30.06 in - WNW 19.6 mph - N/A   Clear
12:30 PM 73.4 °F 39.2 °F 29% 30.06 in - WNW 15.0 mph - N/A   Clear
1:00 PM 73.4 °F 39.2 °F 29% 30.04 in - WNW 13.8 mph - N/A   Clear
1:30 PM 75.2 °F 41.0 °F 29% 30.04 in - WNW 10.4 mph - N/A   Clear
2:00 PM 76 °F 37 °F 15% 30.04 in 25 mi West 10.4 mph - -   Scattered Clouds
2:00 PM 75.2 °F 41.0 °F 29% 30.04 in 6.2 mi West 10.4 mph - N/A   Partly Cloudy
2:30 PM 78.8 °F 41.0 °F 26% 30.04 in 6.2 mi Variable 3.5 mph 15.0 mph N/A   Partly Cloudy
3:00 PM 77.0 °F 42.8 °F 29% 30.01 in 6.2 mi Variable 6.9 mph - N/A   Partly Cloudy
3:30 PM 77.0 °F 44.6 °F 32% 30.01 in 6.2 mi South 12.7 mph - N/A   Partly Cloudy
4:00 PM 75.2 °F 46.4 °F 36% 30.01 in 6.2 mi SSE 12.7 mph - N/A   Partly Cloudy
4:30 PM 77.0 °F 46.4 °F 34% 30.01 in 6.2 mi SSE 11.5 mph - N/A   Partly Cloudy
5:00 PM 73.4 °F 48.2 °F 41% 29.98 in 6.2 mi SSE 12.7 mph - N/A   Partly Cloudy
5:30 PM 69.8 °F 51.8 °F 53% 30.01 in 6.2 mi SSE 11.5 mph - N/A   Partly Cloudy
6:00 PM 69.8 °F 51.8 °F 53% 30.01 in 6.2 mi South 8.1 mph - N/A   Partly Cloudy
6:30 PM 69.8 °F 51.8 °F 53% 30.01 in 6.2 mi South 5.8 mph - N/A   Partly Cloudy
7:00 PM 69.8 °F 51.8 °F 53% 30.01 in 6.2 mi Variable 2.3 mph - N/A   Partly Cloudy
7:30 PM 68.0 °F 51.8 °F 56% 30.01 in 6.2 mi Variable 2.3 mph - N/A   Partly Cloudy
8:00 PM 66 °F 48 °F 42% 30.02 in 16 mi Calm Calm - -   Overcast
8:00 PM 66.2 °F 51.8 °F 60% 30.01 in - Calm Calm - N/A   Clear
8:30 PM 66.2 °F 51.8 °F 60% 30.04 in - Calm Calm - N/A   Clear
9:00 PM 62.6 °F 53.6 °F 72% 30.04 in - East 3.5 mph - N/A   Clear
9:30 PM 62.6 °F 53.6 °F 72% 30.04 in - Variable 2.3 mph - N/A   Clear
10:00 PM 62.6 °F 53.6 °F 72% 30.06 in - Calm Calm - N/A   Clear
10:30 PM 62.6 °F 53.6 °F 72% 30.06 in - Variable 1.2 mph - N/A   Clear
11:00 PM 62.6 °F 51.8 °F 68% 30.06 in - NNW 3.5 mph - N/A   Clear
11:30 PM 62.6 °F 50.0 °F 63% 30.06 in - Variable 1.2 mph - N/A   Clear